| time (UTC) | temp C | wind direction | speed KPH | gust KPH | rain 1hr cm | rain 24hr cm | rain mn cm | humidity % | barometer mb |
| 20260502204458 | 18 | 133 | 1.6 | 6.4 | 0.00 | 0.33 | 0.00 | 93 | 1015.4 |
| 20260502201458 | 18 | 139 | 3.2 | 6.4 | 0.00 | 0.33 | 0.00 | 92 | 1015.1 |
| 20260502194458 | 18 | 143 | 3.2 | 6.4 | 0.00 | 0.33 | 0.00 | 92 | 1014.9 |
| 20260502191458 | 18 | 142 | 3.2 | 6.4 | 0.00 | 0.33 | 0.00 | 90 | 1014.7 |
| 20260502184458 | 19 | 139 | 1.6 | 6.4 | 0.00 | 0.33 | 0.00 | 88 | 1014.8 |
| 20260502181458 | 20 | 137 | 1.6 | 3.2 | 0.00 | 0.38 | 0.00 | 87 | 1014.8 |
| 20260502161458 | 21 | 130 | 4.8 | 11.3 | 0.00 | 0.43 | 0.00 | 86 | 1015.0 |
| 20260502151458 | 21 | 127 | 3.2 | 6.4 | 0.00 | 0.43 | 0.00 | 87 | 1015.2 |
| 20260502121457 | 21 | 117 | 3.2 | 8.0 | 0.00 | 0.43 | 0.43 | 91 | 1016.1 |
| 20260502114458 | 21 | 121 | 3.2 | 6.4 | 0.00 | 0.43 | 0.43 | 92 | 1016.2 |
| 20260502111458 | 21 | 132 | 3.2 | 9.7 | 0.00 | 0.43 | 0.43 | 91 | 1016.3 |
| 20260502104458 | 21 | 111 | 3.2 | 6.4 | 0.00 | 0.43 | 0.43 | 92 | 1016.2 |
| 20260502101458 | 21 | 112 | 4.8 | 8.0 | 0.00 | 0.43 | 0.43 | 92 | 1016.0 |
| 20260502091458 | 21 | 126 | 3.2 | 6.4 | 0.00 | 0.43 | 0.43 | 92 | 1015.2 |
| 20260502071458 | 22 | 108 | 6.4 | 14.5 | 0.05 | 0.33 | 0.33 | 89 | 1014.8 |
| 20260502064458 | 23 | 101 | 6.4 | 20.9 | 0.00 | 0.28 | 0.25 | 82 | 1014.4 |
| 20260502061458 | 24 | 128 | 6.4 | 16.1 | 0.00 | 0.28 | 0.25 | 80 | 1014.2 |
| 20260502054458 | 24 | 109 | 6.4 | 12.9 | 0.00 | 0.28 | 0.25 | 80 | 1014.0 |
| 20260502051458 | 25 | 116 | 6.4 | 27.4 | 0.00 | 0.28 | 0.25 | 79 | 1014.0 |
| 20260502044457 | 25 | 104 | 8.0 | 17.7 | 0.00 | 0.28 | 0.25 | 79 | 1014.3 |
| 20260502041458 | 24 | 137 | 6.4 | 14.5 | 0.00 | 0.28 | 0.25 | 83 | 1014.4 |
| 20260502034457 | 23 | 130 | 4.8 | 11.3 | 0.00 | 0.28 | 0.25 | 83 | 1014.6 |
| 20260502031457 | 25 | 118 | 4.8 | 14.5 | 0.00 | 0.28 | 0.25 | 81 | 1014.7 |
| 20260502024458 | 23 | 107 | 6.4 | 19.3 | 0.05 | 0.28 | 0.25 | 88 | 1015.0 |